[[{"header":{"parameterUnit":"m.s-1","parameterCategory":1,"la1":30.2991,"la2":30.254,"lo1":-89.0895,"lo2":-89.0444,"dy":0.0017,"dx":0.0017,"nx":28,"ny":28,"refTime":"2025-03-09T21:00:00:Z","depth":0,"parameterNumber":2,"parameterNumberName":"U-component_of_WINDS"},"data":[0,0,0,0,0,0,0,0,0,0,0,0,0,0,0,0,0,0,0,0,0,0,0,0,0,0,0,0,0,0,0,0,0,0,0,0,0,0,0,0,0,0,0,0,0,0,0,0,0,0,0,0,0,0,0,0,0,0,7.7883,7.7885,0,7.8092,7.8095,7.8097,7.8044,7.804,7.8036,7.8032,7.8248,7.8257,7.8266,0,0,0,0,0,0,0,0,0,0,0,0,0,7.744,7.7449,7.7883,7.7886,7.7888,7.8092,7.8095,7.8098,7.8045,7.804,7.8035,7.803,7.8244,7.8256,7.8267,0,0,0,0,0,0,0,0,0,0,0,0,0,7.764,7.7452,7.7882,7.7886,7.7889,7.8091,7.8095,7.8098,7.8046,7.804,7.8034,7.8028,7.8241,7.8255,7.8269,7.8481,0,0,7.8313,7.8319,0,0,0,0,0,0,0,0,7.7628,7.7656,7.7883,7.7886,7.789,7.8036,7.8018,7.8227,7.8047,7.7986,7.8032,7.8025,7.8182,7.8201,7.8254,7.8491,7.85,7.8314,7.8323,7.8329,7.8333,0,0,0,0,0,0,0,7.7615,7.7647,7.7966,7.7887,7.7891,7.7879,7.79,7.8057,7.8116,7.7991,7.7988,7.8013,7.8183,7.824,7.8258,7.8503,7.8313,7.8326,7.8335,7.8341,7.8927,7.8934,0,0,0,0,0,0,7.7598,7.7635,7.7959,7.7972,7.7741,7.7892,7.7916,7.7995,7.8114,7.8127,7.8018,7.801,7.8219,7.8242,7.8266,7.8524,7.8329,7.8342,7.835,7.892,7.8929,7.8936,0,0,0,0,0,0,7.7589,7.7627,7.7951,7.7803,7.7843,7.7906,7.7995,7.8002,7.806,7.8135,7.8145,7.8066,7.8215,7.8246,7.8428,7.853,7.8349,7.8362,7.8912,7.8923,7.8933,7.9039,0,0,0,0,0,0,7.7576,7.7624,7.7705,7.7805,7.7851,7.8109,7.8002,7.8011,7.8084,7.8076,7.8182,7.8194,7.8212,7.8407,7.8442,7.8547,7.8373,7.8903,7.8917,7.8929,7.9027,7.9052,7.9074,0,0,0,0,0,7.7561,7.7726,7.7709,7.7748,7.7953,7.8115,7.8141,7.8158,7.8093,7.8175,7.8224,7.8191,7.8513,7.8426,7.8466,7.8576,7.8897,7.8913,7.8928,7.9017,7.9047,7.9073,0,0,0,0,0,0,7.7636,7.7739,7.7721,7.7924,7.8011,7.8106,7.8209,7.819,7.8298,7.8285,7.8302,7.8327,7.8514,7.8563,7.8464,7.8788,7.8696,7.872,7.8749,7.8779,7.8802,7.8787,7.8385,0,0,0,0,0,7.7676,7.7798,7.7882,7.8053,7.8098,7.8147,7.8217,7.8223,7.8314,7.8351,7.8413,7.8503,7.8625,7.8704,7.882,7.9034,7.9057,7.9129,7.9152,7.9171,7.9192,7.9311,7.9345,7.8988,7.8988,7.8987,0,0,7.776,7.7832,7.7908,7.807,7.8138,7.8266,7.8178,7.8315,7.8411,7.8372,7.8548,7.8597,7.8699,7.8899,7.899,7.8945,7.9296,7.9191,7.9206,7.9217,7.9331,7.9365,7.9395,7.8998,7.8997,7.8995,0,0,7.7979,7.8045,7.8196,7.8266,7.8371,7.8402,7.8439,7.8537,7.8568,7.8745,7.872,7.8833,7.9042,7.9116,7.9181,7.9431,7.9406,7.9469,7.9591,7.9707,7.9735,7.976,7.9851,7.9883,7.9489,7.949,7.949,0,7.8071,7.8261,7.8276,7.8417,7.849,7.8461,7.8615,7.8683,7.882,7.8871,7.882,7.9083,7.9149,7.9367,7.9428,7.9481,7.9525,7.9457,7.9729,7.9755,7.9778,7.9865,7.9899,7.9497,7.9496,7.9495,7.9494,0,7.837,7.8503,7.8612,7.8746,7.8831,7.8978,7.9016,7.9101,7.91,7.9137,7.9319,7.9398,7.9531,7.9583,7.9582,7.9802,7.9771,7.9725,7.9632,7.9819,7.9901,7.9935,7.9507,7.9504,7.9502,7.95,0,0,7.8642,7.8783,7.8823,7.8885,7.8998,7.9102,7.9248,7.9378,7.9451,7.9547,7.9671,7.985,7.9808,7.9882,7.989,7.9992,8.0187,7.9933,7.9936,7.9979,8.0436,8.0471,8.0509,8.0171,8.0177,8.0182,8.0428,0,7.8873,7.913,7.9148,7.9381,7.9505,7.948,7.9608,7.9692,7.9732,7.9843,7.9886,8.0014,7.9948,7.9993,8.0092,8.0142,8.0279,8.0125,8.0288,8.0294,8.0265,8.0552,8.0589,8.0817,8.046,8.0465,8.0469,0,7.9176,7.9282,7.9527,7.9625,7.9678,7.9792,7.9914,8.002,8.0116,8.0138,8.0222,8.0217,8.0369,8.027,8.0481,8.0375,8.0443,8.0479,8.0488,8.0504,8.0393,8.0578,8.0889,8.0924,8.0519,8.0515,8.0512,0,7.9352,7.9556,7.9729,7.9782,7.9901,7.9982,8.0036,8.0125,8.0203,8.0309,8.036,8.0483,8.0551,8.0646,8.0675,8.06,8.0886,8.0789,8.091,8.0909,8.0971,8.0967,8.13,8.1013,8.1013,8.1012,8.1011,0,7.9609,7.976,7.981,7.9917,8.0087,8.0107,8.0275,8.0323,8.0404,8.0521,8.0507,8.0617,8.0647,8.0764,8.0787,8.096,8.099,8.1013,8.1017,8.1015,8.1012,8.106,8.1046,8.1021,8.1019,8.1017,8.1016,0,7.9834,7.9874,8.0062,8.0159,8.0187,8.0308,8.0392,8.0496,8.0533,8.0681,8.0717,8.0777,8.0913,8.0951,8.1115,8.1131,8.1334,8.1323,8.1301,8.1302,8.142,8.1409,8.1797,8.1849,8.1527,8.153,8.1532,0,7.9996,8.0112,8.0222,8.0299,8.0356,8.0481,8.056,8.0585,8.0668,8.0787,8.0877,8.1011,8.112,8.134,8.1398,8.1524,8.1517,8.1644,8.1536,8.1531,8.1521,8.1515,8.1527,8.1665,8.1669,8.1671,8.1674,0,8.028,8.0294,8.0408,8.0531,8.0626,8.0723,8.0817,8.0881,8.0919,8.1014,8.1153,8.1238,8.1406,8.154,8.1667,8.1723,8.1707,8.1707,8.1742,8.1741,8.1725,8.1737,8.1359,8.1698,8.1696,8.1694,8.1693,8.1692,8.048,8.0583,8.0677,8.0805,8.0878,8.0967,8.1069,8.112,8.1236,8.1374,8.1382,8.1534,8.1629,8.1798,8.1861,8.1981,8.1943,8.1993,8.2006,8.2019,8.203,8.1705,8.2004,8.2003,8.2003,8.2002,8.2002,0,8.0764,8.0824,8.0942,8.1073,8.1175,8.1149,8.1252,8.1339,8.1473,8.1562,8.167,8.1831,8.1962,8.2031,8.2162,8.2245,8.224,8.2278,8.2273,8.2287,8.2055,8.2012,8.228,8.228,8.228,8.228,8.228,8.228,8.0924,8.1098,8.1123,8.1333,8.1391,8.154,8.1601,8.1683,8.1755,8.1936,8.2044,8.2088,8.217,8.2307,8.2426,8.2443,8.2493,8.2536,8.2549,8.2331,8.2303,8.2276,8.2236,8.2546,8.2546,8.2771,8.2773,8.2775]},{"header":{"parameterUnit":"m.s-1","parameterCategory":1,"la1":30.2991,"la2":30.254,"lo1":-89.0895,"lo2":-89.0444,"dy":0.0017,"dx":0.0017,"nx":28,"ny":28,"refTime":"2025-03-09T21:00:00:Z","depth":0,"parameterNumber":3,"parameterNumberName":"V-component_of_WINDS"},"data":[0,0,0,0,0,0,0,0,0,0,0,0,0,0,0,0,0,0,0,0,0,0,0,0,0,0,0,0,0,0,0,0,0,0,0,0,0,0,0,0,0,0,0,0,0,0,0,0,0,0,0,0,0,0,0,0,0,0,-3.3764,-3.3765,0,-3.3857,-3.3858,-3.3859,-3.3852,-3.385,-3.3849,-3.3848,-3.3942,-3.3946,-3.395,0,0,0,0,0,0,0,0,0,0,0,0,0,-3.3579,-3.3582,-3.3764,-3.3765,-3.3766,-3.3857,-3.3858,-3.386,-3.3852,-3.385,-3.3849,-3.3847,-3.3941,-3.3946,-3.395,0,0,0,0,0,0,0,0,0,0,0,0,0,-3.3664,-3.3583,-3.3764,-3.3773,-3.3775,-3.3857,-3.3859,-3.386,-3.3852,-3.385,-3.3848,-3.3846,-3.394,-3.3945,-3.3951,-3.4029,0,0,-3.3968,-3.3971,0,0,0,0,0,0,0,0,-3.366,-3.3671,-3.3771,-3.3773,-3.3775,-3.3841,-3.3828,-3.3917,-3.3853,-3.3823,-3.3848,-3.3845,-3.391,-3.3918,-3.394,-3.4033,-3.4037,-3.3969,-3.3972,-3.3975,-3.3976,0,0,0,0,0,0,0,-3.3654,-3.3667,-3.3801,-3.3772,-3.3775,-3.3773,-3.3783,-3.3845,-3.3877,-3.3825,-3.3825,-3.3836,-3.3911,-3.3935,-3.3942,-3.4039,-3.3969,-3.3974,-3.3977,-3.398,-3.4201,-3.4204,0,0,0,0,0,0,-3.3646,-3.3662,-3.3798,-3.3804,-3.3711,-3.3778,-3.3789,-3.3822,-3.3877,-3.3883,-3.3838,-3.3836,-3.3926,-3.3936,-3.3946,-3.4041,-3.3975,-3.398,-3.3984,-3.4199,-3.4202,-3.4204,0,0,0,0,0,0,-3.3642,-3.3658,-3.3794,-3.3733,-3.375,-3.3784,-3.382,-3.3825,-3.3849,-3.3886,-3.3892,-3.3857,-3.3925,-3.3938,-3.4009,-3.4044,-3.3983,-3.3988,-3.4196,-3.42,-3.4203,-3.4233,0,0,0,0,0,0,-3.3636,-3.3656,-3.3686,-3.3734,-3.3753,-3.3855,-3.3823,-3.3828,-3.3859,-3.3856,-3.3905,-3.3911,-3.3924,-3.4,-3.4014,-3.4051,-3.3993,-3.4193,-3.4198,-3.4202,-3.4228,-3.4237,-3.4244,0,0,0,0,0,-3.363,-3.369,-3.3688,-3.3704,-3.3792,-3.3857,-3.3869,-3.3883,-3.3862,-3.3892,-3.3916,-3.3909,-3.4038,-3.4007,-3.4023,-3.4063,-3.4191,-3.4196,-3.4202,-3.4225,-3.4235,-3.4244,0,0,0,0,0,0,-3.3646,-3.3697,-3.3694,-3.3772,-3.3811,-3.3856,-3.3895,-3.3893,-3.3938,-3.3934,-3.3949,-3.396,-3.4032,-3.4054,-3.4019,-3.4141,-3.4112,-3.4121,-3.4124,-3.4134,-3.4141,-3.4134,-3.3997,0,0,0,0,0,-3.3658,-3.3708,-3.375,-3.3814,-3.3834,-3.3861,-3.389,-3.3898,-3.3938,-3.3954,-3.3984,-3.4023,-3.4072,-3.4104,-3.4152,-3.4232,-3.4243,-3.4267,-3.4274,-3.4281,-3.4288,-3.4333,-3.4344,-3.4222,-3.4222,-3.4222,0,0,-3.3685,-3.3719,-3.3749,-3.3818,-3.3849,-3.39,-3.3875,-3.3929,-3.3967,-3.3962,-3.4031,-3.4054,-3.4099,-3.4175,-3.421,-3.4196,-3.4324,-3.4288,-3.4292,-3.4296,-3.434,-3.4351,-3.4362,-3.4226,-3.4225,-3.4225,0,0,-3.3759,-3.379,-3.3847,-3.3879,-3.3926,-3.3944,-3.3958,-3.4004,-3.4019,-3.4089,-3.4086,-3.4132,-3.4216,-3.4249,-3.4276,-3.4364,-3.436,-3.4379,-3.4419,-3.4462,-3.4472,-3.4481,-3.4513,-3.4524,-3.4386,-3.4386,-3.4387,0,-3.3786,-3.3863,-3.3877,-3.3933,-3.3964,-3.3962,-3.4021,-3.4051,-3.4111,-3.4132,-3.4116,-3.4223,-3.4252,-3.4336,-3.4358,-3.438,-3.4397,-3.4373,-3.447,-3.4478,-3.4487,-3.4517,-3.4529,-3.4389,-3.4388,-3.4388,-3.4388,0,-3.3894,-3.3947,-3.3988,-3.4047,-3.4082,-3.4139,-3.4162,-3.4196,-3.4201,-3.4221,-3.4292,-3.4328,-3.4383,-3.4404,-3.4409,-3.4489,-3.4479,-3.4466,-3.4436,-3.45,-3.4529,-3.4541,-3.4392,-3.4391,-3.439,-3.439,0,0,-3.398,-3.4047,-3.4062,-3.4089,-3.4141,-3.4182,-3.4239,-3.4294,-3.4323,-3.4365,-3.4413,-3.4485,-3.4474,-3.4505,-3.4514,-3.4552,-3.4621,-3.4535,-3.4536,-3.455,-3.4712,-3.4721,-3.4735,-3.4618,-3.462,-3.4622,-3.4708,0,-3.406,-3.4161,-3.4176,-3.4266,-3.4315,-3.4315,-3.4365,-3.4403,-3.4423,-3.4468,-3.449,-3.4542,-3.4522,-3.4541,-3.4579,-3.4604,-3.4653,-3.4598,-3.4663,-3.4666,-3.4652,-3.475,-3.476,-3.484,-3.472,-3.4722,-3.4723,0,-3.4167,-3.4212,-3.4306,-3.4353,-3.4374,-3.4419,-3.447,-3.4513,-3.4556,-3.4568,-3.4604,-3.4608,-3.4668,-3.4636,-3.4718,-3.468,-3.4708,-3.4724,-3.4728,-3.4734,-3.4698,-3.4759,-3.4865,-3.4877,-3.4741,-3.4739,-3.4738,0,-3.4221,-3.4306,-3.4373,-3.4396,-3.4452,-3.4483,-3.4508,-3.4548,-3.4581,-3.4626,-3.4647,-3.4698,-3.4726,-3.4766,-3.4784,-3.4759,-3.4866,-3.4835,-3.4878,-3.4877,-3.49,-3.4898,-3.5012,-3.4918,-3.4917,-3.4917,-3.4917,0,-3.4309,-3.4367,-3.4398,-3.444,-3.4505,-3.4522,-3.4586,-3.4609,-3.4646,-3.4692,-3.4695,-3.4739,-3.476,-3.4807,-3.4822,-3.4888,-3.49,-3.4912,-3.4915,-3.4912,-3.4911,-3.493,-3.4925,-3.492,-3.492,-3.4919,-3.4918,0,-3.4381,-3.4404,-3.4478,-3.4525,-3.4538,-3.4584,-3.4624,-3.4664,-3.4685,-3.4743,-3.4758,-3.479,-3.4845,-3.4867,-3.4935,-3.4945,-3.5022,-3.502,-3.5007,-3.5008,-3.505,-3.5046,-3.518,-3.5199,-3.5092,-3.5093,-3.5094,0,-3.4435,-3.448,-3.4532,-3.4563,-3.4589,-3.4639,-3.4672,-3.4691,-3.4725,-3.4778,-3.4812,-3.4868,-3.4913,-3.5002,-3.5031,-3.5083,-3.5083,-3.5126,-3.5091,-3.5086,-3.5084,-3.5081,-3.5086,-3.5133,-3.5134,-3.5135,-3.5136,0,-3.453,-3.454,-3.4587,-3.4639,-3.4679,-3.472,-3.4761,-3.4787,-3.4811,-3.485,-3.4907,-3.4942,-3.5011,-3.5067,-3.512,-3.5146,-3.5145,-3.5147,-3.516,-3.5157,-3.5148,-3.5154,-3.5026,-3.5144,-3.5143,-3.5142,-3.5142,-3.5141,-3.4596,-3.4636,-3.4678,-3.4732,-3.4764,-3.4802,-3.4843,-3.4869,-3.4916,-3.4975,-3.4983,-3.5044,-3.5086,-3.5158,-3.5186,-3.5234,-3.5223,-3.5241,-3.5246,-3.525,-3.5253,-3.514,-3.5244,-3.5244,-3.5244,-3.5244,-3.5243,0,-3.4691,-3.4719,-3.4767,-3.4825,-3.4866,-3.4862,-3.4907,-3.4943,-3.4997,-3.5036,-3.5081,-3.5147,-3.5201,-3.5234,-3.5289,-3.5321,-3.5322,-3.5334,-3.5332,-3.5338,-3.526,-3.5244,-3.5333,-3.5333,-3.5333,-3.5333,-3.5333,-3.5332,-3.4746,-3.4813,-3.4828,-3.4912,-3.494,-3.5,-3.5026,-3.5061,-3.5093,-3.5166,-3.5211,-3.5233,-3.5271,-3.5328,-3.5377,-3.5385,-3.5406,-3.5419,-3.5427,-3.5353,-3.5344,-3.5335,-3.532,-3.5423,-3.5423,-3.5501,-3.5502,-3.5502]}]]